G4WLC-1 Weather Reports


Display with metric or nautical units.
time (UTC)temp
F
wind
direction
speed
MPH
gust
MPH
rain 1hr
in
rain 24hr
in
rain mn
in
humidity
%
barometer
mb
20260505153303 56 234 0.0 4.0 0.00 0.00 0.00 68 1013.5
20260505152803 56 355 0.0 3.0 0.00 0.00 0.00 68 1013.4
20260505152305 56 242 0.0 3.0 0.00 0.00 0.00 69 1013.5
20260505151803 56 349 0.0 1.0 0.00 0.00 0.00 69 1013.6
20260505151303 56 288 1.0 3.0 0.00 0.00 0.00 69 1013.5
20260505150803 56 257 1.0 5.0 0.00 0.00 0.00 69 1013.7
20260505150303 56 280 1.0 5.0 0.00 0.00 0.00 68 1013.7
20260505140303 58 334 1.0 5.0 0.00 0.00 0.00 61 1013.9
20260505130304 58 41 1.0 5.0 0.00 0.00 0.00 62 1013.9
20260505124804 58 345 1.0 8.0 0.00 0.00 0.00 60 1013.8
20260505124304 58 18 2.0 8.0 0.00 0.00 0.00 59 1013.8
20260505123804 59 88 1.0 6.0 0.00 0.00 0.00 58 1013.7
20260505123304 59 30 1.0 5.0 0.00 0.00 0.00 60 1013.8
20260505122804 59 356 0.0 3.0 0.00 0.00 0.00 58 1013.7
20260505122305 59 1 1.0 2.0 0.00 0.00 0.00 59 1013.8
20260505121804 58 64 1.0 5.0 0.00 0.00 0.00 58 1013.8
20260505121304 59 305 1.0 5.0 0.00 0.00 0.00 57 1013.8
20260505120804 60 42 2.0 9.0 0.00 0.00 0.00 55 1013.7
20260505120304 60 32 1.0 5.0 0.00 0.00 0.00 58 1013.7
20260505115804 60 280 1.0 5.0 0.00 0.00 0.00 61 1013.6
20260505115305 59 349 1.0 3.0 0.00 0.00 0.00 58 1013.9
20260505114804 59 288 1.0 9.0 0.00 0.00 0.00 58 1013.8
20260505114304 61 161 1.0 5.0 0.00 0.00 0.00 56 1013.8
20260505113804 61 286 1.0 5.0 0.00 0.00 0.00 62 1014.0
20260505113304 61 276 1.0 5.0 0.00 0.00 0.00 57 1013.9
20260505112804 60 39 1.0 4.0 0.00 0.00 0.00 60 1014.1
20260505112305 60 238 2.0 6.0 0.00 0.00 0.00 59 1014.1
20260505111804 60 270 1.0 9.0 0.00 0.00 0.00 58 1014.1
20260505111304 60 4 1.0 8.0 0.00 0.00 0.00 61 1014.0
20260505110804 59 295 1.0 4.0 0.00 0.00 0.00 62 1013.9
20260505110304 58 97 1.0 5.0 0.00 0.00 0.00 62 1014.0
20260505101804 58 347 3.0 8.0 0.00 0.00 0.00 66 1014.1
20260505101304 57 4 3.0 9.0 0.00 0.00 0.00 62 1014.2
20260505100804 58 254 2.0 9.0 0.00 0.00 0.00 64 1014.2
20260505100304 58 338 1.0 8.0 0.00 0.00 0.00 64 1014.0
20260505095804 57 259 2.0 7.0 0.00 0.00 0.00 64 1014.1
20260505095305 57 98 2.0 7.0 0.00 0.00 0.00 64 1014.3
20260505094804 57 337 1.0 6.0 0.00 0.00 0.00 65 1014.1
20260505094304 57 11 1.0 6.0 0.00 0.00 0.00 68 1014.2
20260505093804 56 342 1.0 4.0 0.00 0.00 0.00 69 1014.1
20260505093304 56 235 1.0 7.0 0.00 0.00 0.00 69 1014.2
20260505092804 56 102 2.0 6.0 0.00 0.00 0.00 68 1014.3
20260505092305 55 258 2.0 9.0 0.00 0.00 0.00 69 1014.2
20260505091804 55 218 1.0 9.0 0.00 0.00 0.00 68 1014.3
20260505091304 55 273 1.0 4.0 0.00 0.00 0.00 71 1014.3
20260505090804 55 151 1.0 5.0 0.00 0.00 0.00 70 1014.2
20260505090304 55 44 1.0 5.0 0.00 0.00 0.00 69 1014.2
20260505085804 54 11 1.0 7.0 0.00 0.00 0.00 73 1014.2
20260505085305 54 352 1.0 5.0 0.00 0.00 0.00 71 1014.2
20260505084804 54 10 2.0 5.0 0.00 0.00 0.00 71 1014.2
20260505084304 53 103 1.0 6.0 0.00 0.00 0.00 71 1014.2
20260505083804 54 356 1.0 5.0 0.00 0.00 0.00 73 1014.3
20260505083304 53 93 1.0 6.0 0.00 0.00 0.00 73 1014.2
20260505082804 54 359 1.0 6.0 0.00 0.00 0.00 73 1014.3
20260505082305 53 31 2.0 7.0 0.00 0.00 0.00 73 1014.3
20260505081804 52 331 2.0 5.0 0.00 0.00 0.00 74 1014.5
20260505081304 52 326 1.0 7.0 0.00 0.00 0.00 74 1014.4
20260505080804 51 18 1.0 4.0 0.00 0.00 0.00 75 1014.4
20260505080304 51 293 1.0 7.0 0.00 0.00 0.00 76 1014.3
20260505075804 50 350 1.0 6.0 0.00 0.00 0.00 76 1014.4
20260505075304 50 4 1.0 5.0 0.00 0.00 0.00 76 1014.4
20260505074804 50 335 2.0 6.0 0.00 0.00 0.00 76 1014.4
20260505074304 50 352 2.0 9.0 0.00 0.00 0.00 76 1014.4
20260505073804 49 326 2.0 4.0 0.00 0.00 0.00 77 1014.5
20260505073304 49 333 1.0 5.0 0.00 0.00 0.00 78 1014.6
20260505072804 49 20 1.0 6.0 0.00 0.00 0.00 79 1014.5
20260505072305 49 1 1.0 5.0 0.00 0.00 0.00 79 1014.6
20260505071804 49 28 1.0 5.0 0.00 0.00 0.00 80 1014.7
20260505071304 49 32 1.0 4.0 0.00 0.00 0.00 80 1014.7
20260505070804 49 359 1.0 5.0 0.00 0.00 0.00 80 1014.7
20260505070304 49 96 1.0 5.0 0.00 0.00 0.00 80 1014.6
20260505065804 49 23 1.0 4.0 0.00 0.00 0.00 80 1014.5
20260505065304 48 25 1.0 3.0 0.00 0.00 0.00 81 1014.6
20260505064804 48 245 1.0 5.0 0.00 0.00 0.00 81 1014.8
20260505064304 48 358 1.0 4.0 0.00 0.00 0.00 81 1014.7
20260505063804 48 4 1.0 4.0 0.00 0.00 0.00 82 1014.7
20260505063304 48 13 1.0 3.0 0.00 0.00 0.00 83 1014.6
20260505062804 48 349 1.0 5.0 0.00 0.00 0.00 83 1014.7
20260505062304 48 26 0.0 2.0 0.00 0.00 0.00 83 1014.7
20260505061804 48 306 1.0 4.0 0.00 0.00 0.00 83 1014.7
20260505061304 48 4 1.0 3.0 0.00 0.00 0.00 83 1014.8
20260505060804 48 296 0.0 3.0 0.00 0.00 0.00 83 1014.8
20260505060304 48 9 1.0 1.0 0.00 0.00 0.00 84 1014.8
20260505055804 48 330 1.0 4.0 0.00 0.00 0.00 84 1014.7
20260505055304 47 358 1.0 5.0 0.00 0.00 0.00 84 1014.8
20260505054804 47 49 0.0 2.0 0.00 0.00 0.00 85 1014.8
20260505054304 47 351 0.0 2.0 0.00 0.00 0.00 85 1014.7
20260505053804 47 347 0.0 1.0 0.00 0.00 0.00 86 1014.7
20260505053304 47 12 0.0 1.0 0.00 0.00 0.00 86 1014.7
20260505052805 47 17 0.0 2.0 0.00 0.00 0.00 86 1014.8
20260505052305 47 320 0.0 1.0 0.00 0.00 0.00 85 1014.8
20260505051804 47 335 0.0 0.0 0.00 0.00 0.00 85 1014.8
20260505051305 47 321 0.0 1.0 0.00 0.00 0.00 85 1014.7
20260505050805 47 8 0.0 2.0 0.00 0.00 0.00 85 1014.8
20260505050305 47 15 0.0 2.0 0.00 0.00 0.00 84 1014.7
20260505041305 47 347 1.0 3.0 0.00 0.00 0.00 85 1014.4
20260505040805 47 349 0.0 3.0 0.00 0.00 0.00 85 1014.4
20260505040305 47 347 1.0 3.0 0.00 0.00 0.00 86 1014.3
20260505035805 47 359 1.0 4.0 0.00 0.00 0.00 86 1014.2
20260505035305 47 353 0.0 2.0 0.00 0.00 0.00 87 1014.3
20260505034805 47 342 1.0 3.0 0.00 0.00 0.00 87 1014.4
20260505034305 47 0 1.0 4.0 0.00 0.00 0.00 87 1014.3
20260505033805 47 349 0.0 2.0 0.00 0.00 0.00 88 1014.4
20260505033305 47 2 1.0 2.0 0.00 0.00 0.00 89 1014.5
20260505032805 47 357 1.0 2.0 0.00 0.00 0.00 89 1014.5
20260505032305 47 1 0.0 3.0 0.00 0.00 0.00 90 1014.6
20260505031805 47 311 0.0 2.0 0.00 0.00 0.00 90 1014.7
20260505031305 47 356 0.0 2.0 0.00 0.00 0.00 90 1014.6
20260505030805 47 323 0.0 2.0 0.00 0.00 0.00 90 1014.6
20260505030305 47 333 0.0 0.0 0.00 0.00 0.00 90 1014.6
20260505025805 47 333 0.0 0.0 0.00 0.00 0.00 90 1014.6
20260505025305 46 358 0.0 0.0 0.00 0.00 0.00 90 1014.8
20260505024805 46 358 0.0 0.0 0.00 0.00 0.00 90 1014.8
20260505024305 46 357 0.0 0.0 0.00 0.00 0.00 90 1014.7
20260505023805 46 356 0.0 0.0 0.00 0.00 0.00 90 1014.7
20260505023305 47 357 0.0 0.0 0.00 0.00 0.00 89 1014.7
20260505022805 47 357 0.0 0.0 0.00 0.00 0.00 89 1014.6
20260505022305 47 357 0.0 0.0 0.00 0.00 0.00 89 1014.5
20260505021805 47 357 0.0 3.0 0.00 0.00 0.00 90 1014.6
20260505021305 47 338 0.0 2.0 0.00 0.00 0.00 90 1014.5
20260505020805 47 348 0.0 2.0 0.00 0.00 0.00 90 1014.6
20260505020305 47 18 0.0 3.0 0.00 0.00 0.00 90 1014.6
20260505015805 47 355 0.0 2.0 0.00 0.00 0.00 90 1014.6
20260505015305 47 356 0.0 2.0 0.00 0.00 0.00 90 1014.6
20260505014805 47 354 0.0 2.0 0.00 0.00 0.00 90 1014.6
20260505014307 47 1 0.0 2.0 0.00 0.00 0.00 90 1014.7
20260505013805 47 349 0.0 2.0 0.00 0.00 0.00 89 1014.8
20260505013305 47 345 0.0 2.0 0.00 0.00 0.00 89 1014.9
20260505012805 47 3 0.0 1.0 0.00 0.00 0.00 89 1014.9
20260505012305 47 19 0.0 1.0 0.00 0.00 0.00 89 1015.0
20260505011805 47 20 0.0 1.0 0.00 0.00 0.00 89 1015.0
20260505011305 48 18 0.0 1.0 0.00 0.00 0.00 89 1014.9
20260505010805 48 335 0.0 1.0 0.00 0.00 0.00 88 1014.9
20260505010305 48 357 0.0 2.0 0.00 0.00 0.00 89 1015.0
20260505005805 48 349 0.0 1.0 0.00 0.00 0.00 88 1015.1
20260505005305 48 349 0.0 2.0 0.00 0.00 0.00 89 1014.9
20260505004805 48 359 0.0 1.0 0.00 0.00 0.00 88 1015.0
20260505004305 48 358 0.0 1.0 0.00 0.00 0.00 88 1015.1
20260505003805 48 4 0.0 1.0 0.00 0.00 0.00 88 1015.1
20260505003305 48 5 0.0 0.0 0.00 0.00 0.00 88 1015.1
20260505002805 48 5 0.0 0.0 0.00 0.00 0.00 88 1015.1
20260505002305 48 5 0.0 0.0 0.00 0.00 0.00 88 1015.2
20260505001805 48 5 0.0 0.0 0.00 0.00 0.00 88 1015.1
20260505001305 48 5 0.0 0.0 0.00 0.00 0.00 88 1015.2
20260505000805 48 5 0.0 0.0 0.00 0.00 0.00 88 1015.2
20260505000305 48 5 0.0 1.0 0.00 0.00 0.00 89 1015.2
20260504235805 48 5 0.0 1.0 0.00 0.00 0.00 89 1015.2
20260504235305 48 5 0.0 1.0 0.00 0.00 0.00 89 1015.3
20260504234805 48 5 0.0 1.0 0.00 0.00 0.00 89 1015.3
20260504234305 48 5 0.0 0.0 0.00 0.00 0.00 89 1015.3
20260504233805 48 5 0.0 0.0 0.00 0.00 0.00 89 1015.2
20260504233305 48 5 0.0 1.0 0.00 0.00 0.00 89 1015.1
20260504232805 48 5 0.0 0.0 0.00 0.00 0.00 89 1015.1
20260504232305 48 5 0.0 1.0 0.00 0.00 0.00 89 1015.1
20260504231805 48 5 0.0 1.0 0.00 0.00 0.00 89 1015.0
20260504231305 48 5 0.0 0.0 0.00 0.00 0.00 89 1015.0
20260504230805 49 5 0.0 0.0 0.00 0.00 0.00 89 1015.1
20260504230305 49 6 0.0 0.0 0.00 0.00 0.00 89 1015.0
20260504225805 49 330 0.0 2.0 0.00 0.00 0.00 89 1015.0
20260504225305 49 343 0.0 2.0 0.00 0.00 0.00 89 1015.1
20260504224805 49 343 0.0 1.0 0.00 0.00 0.00 89 1015.1
20260504224305 49 349 0.0 1.0 0.00 0.00 0.00 89 1015.2
20260504223805 49 342 0.0 1.0 0.00 0.00 0.00 89 1015.2
20260504223305 49 345 0.0 1.0 0.00 0.00 0.00 89 1015.2
20260504222805 49 345 0.0 1.0 0.00 0.00 0.00 89 1015.4
20260504222305 49 340 0.0 1.0 0.00 0.00 0.00 89 1015.4
20260504221805 49 301 0.0 1.0 0.00 0.00 0.00 89 1015.4
20260504221305 49 345 0.0 0.0 0.00 0.00 0.00 88 1015.5
20260504220805 49 346 0.0 2.0 0.00 0.00 0.00 88 1015.4
20260504220305 49 330 0.0 1.0 0.00 0.00 0.00 88 1015.3
20260504215805 49 333 0.0 1.0 0.00 0.00 0.00 88 1015.5
20260504215305 49 349 0.0 0.0 0.00 0.00 0.00 87 1015.4
20260504214805 50 349 0.0 1.0 0.00 0.00 0.00 87 1015.4
20260504214305 50 349 0.0 1.0 0.00 0.00 0.00 87 1015.3
20260504213805 50 304 0.0 2.0 0.00 0.00 0.00 87 1015.4
20260504213305 50 349 0.0 1.0 0.00 0.00 0.00 87 1015.5
20260504212805 50 349 0.0 2.0 0.00 0.00 0.00 87 1015.5
20260504212305 50 312 0.0 2.0 0.00 0.00 0.00 87 1015.5
20260504211805 50 354 0.0 1.0 0.00 0.00 0.00 87 1015.5
20260504211306 50 335 0.0 1.0 0.00 0.00 0.00 87 1015.4
20260504210805 50 318 0.0 0.0 0.00 0.00 0.00 87 1015.5
20260504210306 51 319 0.0 1.0 0.00 0.00 0.00 87 1015.5
20260504205805 51 352 0.0 1.0 0.00 0.00 0.00 87 1015.4
20260504205306 51 25 0.0 1.0 0.00 0.00 0.00 87 1015.5
20260504204806 51 321 0.0 1.0 0.00 0.00 0.00 87 1015.5
20260504204306 51 321 0.0 2.0 0.00 0.00 0.00 87 1015.5
20260504203806 51 34 0.0 1.0 0.00 0.00 0.00 87 1015.5
20260504203306 51 349 0.0 1.0 0.00 0.00 0.00 87 1015.5
20260504202806 51 30 0.0 0.0 0.00 0.00 0.00 86 1015.5
20260504202306 51 37 0.0 1.0 0.00 0.00 0.00 86 1015.5
20260504201806 52 333 0.0 2.0 0.00 0.00 0.00 86 1015.5
20260504201306 52 357 0.0 1.0 0.00 0.00 0.00 86 1015.4
20260504200806 52 326 0.0 2.0 0.00 0.00 0.00 86 1015.4
20260504200306 52 343 0.0 1.0 0.00 0.00 0.00 86 1015.2
20260504195806 52 343 0.0 1.0 0.00 0.00 0.00 85 1015.2
20260504195306 52 343 0.0 2.0 0.00 0.00 0.00 85 1015.2
20260504194806 52 326 0.0 0.0 0.00 0.00 0.00 85 1015.3
20260504194306 53 326 0.0 1.0 0.00 0.00 0.00 85 1015.1
20260504193806 53 330 0.0 0.0 0.00 0.00 0.00 84 1015.0
20260504193306 54 330 0.0 1.0 0.00 0.00 0.00 84 1014.7
20260504192806 54 330 0.0 1.0 0.00 0.00 0.00 83 1014.7
20260504192306 55 285 0.0 0.0 0.00 0.00 0.00 82 1014.8
20260504191806 55 285 0.0 0.0 0.00 0.00 0.00 81 1014.9
20260504191306 56 285 0.0 0.0 0.00 0.00 0.00 80 1014.8
20260504190806 57 284 0.0 0.0 0.00 0.00 0.00 78 1014.8
20260504190306 58 297 0.0 1.0 0.00 0.00 0.00 77 1014.8
20260504185806 59 305 0.0 0.0 0.00 0.00 0.00 76 1014.7
20260504185306 59 304 0.0 0.0 0.00 0.00 0.00 77 1014.6
20260504184806 59 304 0.0 2.0 0.00 0.00 0.00 76 1014.7
20260504184306 60 340 0.0 1.0 0.00 0.00 0.00 77 1014.7
20260504183806 60 37 0.0 1.0 0.00 0.00 0.00 77 1014.7
20260504183306 59 47 0.0 1.0 0.00 0.00 0.00 78 1014.8
20260504182806 59 44 0.0 2.0 0.00 0.00 0.00 79 1014.7
20260504182306 59 285 0.0 1.0 0.00 0.00 0.00 79 1014.7
20260504181806 59 354 0.0 1.0 0.00 0.01 0.00 77 1014.5
20260504181306 60 19 0.0 3.0 0.00 0.01 0.00 76 1014.6
20260504180806 61 278 0.0 2.0 0.00 0.01 0.00 75 1014.5
20260504180306 61 198 0.0 2.0 0.00 0.01 0.00 76 1014.5
20260504175806 61 344 0.0 3.0 0.00 0.01 0.00 76 1014.4
20260504175306 61 341 0.0 3.0 0.00 0.01 0.00 75 1014.5
20260504174806 61 27 1.0 2.0 0.00 0.01 0.00 75 1014.5
20260504174306 61 288 1.0 5.0 0.00 0.01 0.00 76 1014.4
20260504173806 60 73 0.0 3.0 0.00 0.01 0.00 76 1014.4
20260504173306 61 354 0.0 1.0 0.00 0.01 0.00 76 1014.3
20260504172806 61 272 0.0 2.0 0.00 0.01 0.00 77 1014.4
20260504172306 60 252 0.0 1.0 0.00 0.01 0.00 77 1014.4
20260504171806 60 248 0.0 2.0 0.00 0.01 0.00 78 1014.6
20260504171306 60 321 0.0 2.0 0.00 0.01 0.00 76 1014.5
20260504170806 61 349 1.0 2.0 0.00 0.01 0.00 76 1014.5
20260504170306 61 249 1.0 4.0 0.00 0.01 0.00 74 1014.6
20260504160306 62 143 1.0 4.0 0.00 0.01 0.00 69 1014.7